Lexington Weather

Lexington, Massachusetts, USA

39°F
1/28/2023 9:05pm 
  • Lexington Conditions: Clear
  • Temperature: 38.8°F / 3.8°CColder 0.9°F than last hour.
  • Dew Point: 27.3°FIncreased 0.7°Fsince last hour.
  • Relative Humidity: 63%Increased 4.0% since last hour.
  • Wind: Calm, 10-min avg: Calm, gust: None
  • Barometer: 30.24 inRising 0.02  inHg/hr Rising Slowly
  • Visibility: 10 miles
  • Rain Today: 0.00 in
  •   

Regional Weather Roundup
for Boston, MA

        
000
ASUS41 KBOX 270710
RWRBOX

REGIONAL WEATHER ROUNDUP
NATIONAL WEATHER SERVICE BOSTON/NORTON MA
200 AM EST FRI JAN 27 2023

NOTE:  "FAIR" INDICATES FEW OR NO CLOUDS BELOW 12,000 FEET WITH NO 
SIGNIFICANT WEATHER AND/OR OBSTRUCTIONS TO VISIBILITY.

MAZALL-270800-
EASTERN MASSACHUSETTS
  
CITY           SKY/WX    TMP DP  RH WIND       PRES   REMARKS
BOSTON         MOCLDY    34  20  56 W21       29.89R WCI  22          
BEVERLY        CLOUDY    32  19  58 W12G17    29.86R WCI  23          
LAWRENCE       PTCLDY    31  17  56 NW7       29.89R WCI  24          
BEDFORD        MOCLDY    34  19  54 W13       29.87R WCI  25          
NORWOOD        CLOUDY    37  23  56 NW8       29.89R WCI  31          
MARSHFIELD     CLOUDY    36  21  55 VRB5      29.88R WCI  32          
PLYMOUTH       CLEAR     34  21  59 W8        29.87R WCI  27          
TAUNTON          N/A    N/A N/A N/A MISG      29.89R                  
NEW BEDFORD    PTCLDY    35  23  61 NW6       29.89R WCI  30          
$$

MAZALL-270800-
CAPE COD AND THE ISLANDS
  
CITY           SKY/WX    TMP DP  RH WIND       PRES   REMARKS
FALMOUTH       MOCLDY    36  23  60 NW12      29.88R WCI  27          
HYANNIS        PTCLDY    33  23  66 NW3       29.87R                  
CHATHAM        CLEAR     37  24  59 W6        29.88R                  
PROVINCETOWN   CLOUDY    36  23  59 W18G25    29.87R WCI  26          
NANTUCKET      CLEAR     39  26  59 NW10      29.89R                  
MARTHAS VNYRD  PTCLDY    39  25  57 W6        29.89R                  
$$
 
MAZALL-270800-
CENTRAL AND WESTERN MASSACHUSETTS
  
CITY           SKY/WX    TMP DP  RH WIND       PRES   REMARKS
WORCESTER      CLOUDY    30  20  66 W10G21    29.84R WCI  21          
FITCHBURG      PTCLDY    30  17  58 NW10G20   29.87R WCI  21          
ORANGE         PTCLDY    28  16  60 W7        29.89R WCI  21          
SPRINGFIELD    CLOUDY    31  16  53 NW6       29.90R WCI  25          
WESTFIELD      MOCLDY    30  17  58 NW8       29.91R WCI  22          
NORTH ADAMS    CLOUDY    27  17  66 W7        29.89R WCI  19          
PITTSFIELD     CLOUDY    25  15  66 W5        29.85R WCI  19          
$$
 
RIZALL-270800-
RHODE ISLAND
  
CITY           SKY/WX    TMP DP  RH WIND       PRES   REMARKS
PROVIDENCE     PTCLDY    33  22  63 NW7       29.90R WCI  27          
NEWPORT        CLOUDY    36  23  59 NW10      29.88R WCI  28          
BLOCK ISLAND   MOCLDY    38  23  55 W18       29.91R WCI  28          
SMITHFIELD     CLEAR     31  22  69 W7        29.89R WCI  24          
WESTERLY       PTCLDY    38  23  55 VRB5      29.90R                  
$$
 
CTZALL-270800-
CONNECTICUT
  
CITY           SKY/WX    TMP DP  RH WIND       PRES   REMARKS
BRADLEY INTL   MOCLDY    32  21  64 NW9       29.92R WCI  24          
HARTFORD       MOCLDY    36  20  52 NW8       29.93R WCI  30          
BRIDGEPORT     PTCLDY    37  21  52 W8        29.94R WCI  31          
DANBURY        CLOUDY    36  22  56 W6        29.92R WCI  31          
GROTON         PTCLDY    40  22  48 W8        29.91R                  
NEW HAVEN      CLOUDY    40  25  55 VRB7      29.92R                  
CHESTER        CLOUDY    37  23  56 VRB6      29.90R                  
MERIDEN        CLOUDY    38  22  52 N6        29.92R                  
WILLIMANTIC    CLOUDY    34  21  59 NW7       29.92R WCI  28          
OXFORD         CLOUDY    35  23  61 W6        29.90R WCI  30          
$$

MEZ002-015-021-024-NHZ003-005-008-011-012-014-VTZ005-008-270800-
NORTHERN NEW ENGLAND
  
CITY           SKY/WX    TMP DP  RH WIND       PRES   REMARKS
PORTLAND ME    CLEAR     27  13  55 W13       29.82R WCI  16          
BANGOR ME      PTCLDY    24  14  65 W3        29.74R                  
CONCORD NH     CLEAR     25  14  63 W9        29.86R WCI  15          
MANCHESTER NH  MOCLDY    28  16  60 NW7       29.85R WCI  21          
NASHUA NH      MOCLDY    30  18  60 NW8       29.88R WCI  22          
PORTSMOUTH NH  PTCLDY    28  14  54 W13       29.85R WCI  18          
JAFFREY NH     PTCLDY    27  14  58 VRB6      29.83R WCI  20          
KEENE NH       PTCLDY    27  16  63 CALM      29.88R                  
BURLINGTON VT  MOCLDY    27  15  61 NW9       29.87R WCI  18          
MT. WASHINGTON SNOW      -2  -2 100 NW66G79     N/A  VSB 0   WCI -37  
$$

NYZ052-076-270800-
EASTERN NEW YORK
  
CITY           SKY/WX    TMP DP  RH WIND       PRES   REMARKS
ALBANY         CLOUDY    28  18  66 CALM      29.92R                  
NEW YORK CITY  PTCLDY    40  24  53 W14G21    29.95R                  
$$
 
ANZALL-270800-
MARINE OBSERVATIONS
  
STATION/POSITION TIME  TEMP    WIND        PRES    VSBY  WAVE
                       AIR SEA DIR/SP/G                  HT/PER
                 (UTC) (F)     (DEG/KT/KT) (MB)    (MI)  (FT/S)
BOSTON BUOY      0640      42                N/A           4/12
BUZZARDS BAY     0600   40     310/ 16/ 18 1011.5R
NANTUCKET SOUND  0650   41 42  290/ 16/ 21 1011.7R         3/ 3
MASS BAY-STELLWA 0504   36 42  280/ 19/ 25 1007.7R  1 7/8  3/ 4
ISLE OF SHOALS   0600   32     300/ 23/ 27 1008.9R
S OF BLOCK IS    0656      44                N/A          11/12
$$

......................KEY.........................
  SKY/WX - SKY CONDITION/PRESENT WEATHER
  TMP    - TEMPERATURE IN FAHRENHEIT
  DWPT   - DEWPOINT IN FAHRENHEIT
  RH     - RELATIVE HUMIDITY IN PERCENT
  WIND   - DIRECTION AND SPEED IN MPH
  PRES   - MEAN SEA LEVEL PRESSURE IN INCHES OF HG
  WCI    - WIND CHILL INDEX
  VSB    - VISIBILITY IN MILES
  HX     - HEAT INDEX
  TC     - TEMPERATURE IN CELSIUS
  VRB    - VARIABLE WIND DIRECTION
  N/A    - NOT AVAILABLE
  
      

Other recent Regional Weather Roundups

Sat Jan 28, 8:10pm EST

Sat Jan 28, 7:10pm EST

Sat Jan 28, 6:10pm EST

Sat Jan 28, 5:10pm EST

Sat Jan 28, 4:10pm EST

Sat Jan 28, 3:10pm EST

Sat Jan 28, 2:10pm EST

Sat Jan 28, 1:10pm EST

Sat Jan 28, 12:10pm EST

Sat Jan 28, 11:10am EST

Sat Jan 28, 10:10am EST

Sat Jan 28, 9:10am EST

Sat Jan 28, 8:10am EST

Sat Jan 28, 7:10am EST

Sat Jan 28, 6:10am EST

Sat Jan 28, 5:10am EST

Sat Jan 28, 4:10am EST

Sat Jan 28, 3:10am EST

Sat Jan 28, 2:10am EST

Sat Jan 28, 1:10am EST

Sat Jan 28, 12:10am EST

Fri Jan 27, 11:10pm EST

Fri Jan 27, 10:10pm EST

Fri Jan 27, 9:10pm EST

Fri Jan 27, 8:10pm EST

Fri Jan 27, 7:10pm EST

Fri Jan 27, 6:10pm EST

Fri Jan 27, 5:10pm EST

Fri Jan 27, 4:10pm EST

Fri Jan 27, 3:10pm EST

Fri Jan 27, 2:10pm EST

Fri Jan 27, 1:10pm EST

Fri Jan 27, 12:10pm EST

Fri Jan 27, 11:10am EST

Fri Jan 27, 10:10am EST

Fri Jan 27, 9:10am EST

Fri Jan 27, 8:10am EST

Fri Jan 27, 7:10am EST

Fri Jan 27, 6:10am EST

Fri Jan 27, 5:10am EST

Fri Jan 27, 4:10am EST

Fri Jan 27, 3:10am EST

Fri Jan 27, 1:10am EST

Fri Jan 27, 12:10am EST

Thu Jan 26, 11:10pm EST

Thu Jan 26, 10:10pm EST

Thu Jan 26, 9:10pm EST

Thu Jan 26, 8:10pm EST

Thu Jan 26, 7:10pm EST

Thu Jan 26, 6:10pm EST

Thu Jan 26, 5:10pm EST

Thu Jan 26, 4:10pm EST

Thu Jan 26, 3:10pm EST

Thu Jan 26, 2:10pm EST

Thu Jan 26, 1:10pm EST

Thu Jan 26, 12:10pm EST

Thu Jan 26, 11:10am EST

Thu Jan 26, 10:10am EST

Thu Jan 26, 9:10am EST

Thu Jan 26, 8:10am EST

Thu Jan 26, 7:10am EST

Thu Jan 26, 6:10am EST

Thu Jan 26, 5:10am EST

Thu Jan 26, 4:10am EST

Thu Jan 26, 3:10am EST

Thu Jan 26, 2:10am EST

Thu Jan 26, 1:10am EST

Thu Jan 26, 12:10am EST

Wed Jan 25, 11:10pm EST

Wed Jan 25, 10:10pm EST

Wed Jan 25, 9:10pm EST

Wed Jan 25, 8:10pm EST

Wed Jan 25, 7:10pm EST

Wed Jan 25, 6:10pm EST

Wed Jan 25, 5:10pm EST

Wed Jan 25, 4:10pm EST

Wed Jan 25, 3:10pm EST

Wed Jan 25, 2:10pm EST

Wed Jan 25, 1:10pm EST

Wed Jan 25, 12:10pm EST

Wed Jan 25, 11:10am EST

Wed Jan 25, 10:10am EST

Wed Jan 25, 9:10am EST

Wed Jan 25, 8:10am EST

Wed Jan 25, 7:10am EST

Wed Jan 25, 6:10am EST

Wed Jan 25, 5:10am EST

Wed Jan 25, 4:10am EST

Wed Jan 25, 3:10am EST

Wed Jan 25, 2:10am EST

Wed Jan 25, 1:10am EST

Wed Jan 25, 12:10am EST

Tue Jan 24, 11:10pm EST

Tue Jan 24, 10:10pm EST

Tue Jan 24, 9:10pm EST

Tue Jan 24, 8:10pm EST

Tue Jan 24, 7:10pm EST

Tue Jan 24, 6:10pm EST

Tue Jan 24, 5:10pm EST

Tue Jan 24, 4:10pm EST

Tue Jan 24, 3:10pm EST

Tue Jan 24, 2:10pm EST

Tue Jan 24, 1:10pm EST

Tue Jan 24, 12:10pm EST

Tue Jan 24, 11:10am EST

Tue Jan 24, 10:10am EST

Tue Jan 24, 9:10am EST

Tue Jan 24, 8:10am EST

Tue Jan 24, 7:10am EST

Tue Jan 24, 6:10am EST

Tue Jan 24, 5:10am EST

Tue Jan 24, 4:10am EST

Tue Jan 24, 3:10am EST

Tue Jan 24, 2:10am EST

Tue Jan 24, 1:10am EST

Tue Jan 24, 12:10am EST

Mon Jan 23, 11:10pm EST

Mon Jan 23, 10:10pm EST

Mon Jan 23, 9:10pm EST

Mon Jan 23, 8:10pm EST

Mon Jan 23, 7:10pm EST

Mon Jan 23, 6:10pm EST

Mon Jan 23, 5:10pm EST

Mon Jan 23, 4:10pm EST

Mon Jan 23, 3:10pm EST

Mon Jan 23, 2:10pm EST

Mon Jan 23, 1:10pm EST

Mon Jan 23, 12:10pm EST

Mon Jan 23, 11:10am EST

Mon Jan 23, 10:10am EST

Mon Jan 23, 9:10am EST

Mon Jan 23, 8:10am EST

Mon Jan 23, 7:10am EST

Mon Jan 23, 6:10am EST

Mon Jan 23, 5:10am EST

Mon Jan 23, 4:10am EST

Mon Jan 23, 3:10am EST

Mon Jan 23, 2:10am EST

Mon Jan 23, 1:10am EST

Mon Jan 23, 12:10am EST

Sun Jan 22, 11:10pm EST

Sun Jan 22, 10:10pm EST

Sun Jan 22, 9:10pm EST

Sun Jan 22, 8:10pm EST

Sun Jan 22, 7:10pm EST

Sun Jan 22, 6:10pm EST

Sun Jan 22, 5:10pm EST

Sun Jan 22, 4:10pm EST

Sun Jan 22, 3:10pm EST

Sun Jan 22, 2:10pm EST

Sun Jan 22, 1:10pm EST

Sun Jan 22, 12:10pm EST

Sun Jan 22, 11:10am EST

Sun Jan 22, 10:10am EST

Sun Jan 22, 9:10am EST

Sun Jan 22, 8:10am EST

Sun Jan 22, 7:10am EST

Sun Jan 22, 6:10am EST

Sun Jan 22, 5:10am EST

Sun Jan 22, 4:10am EST

Sun Jan 22, 3:10am EST

Sun Jan 22, 2:10am EST

Sun Jan 22, 1:10am EST

Sun Jan 22, 12:10am EST

Sat Jan 21, 11:10pm EST

Sat Jan 21, 10:10pm EST

Sat Jan 21, 9:10pm EST